• In Deutschland
  • Länderverzeichnis
  • Für 7 Tage
  • Wassertemperatur
  • Satellitenkarten
  • Wetterkarte
  • Widgets
  • user-avatar
    Anmelden

    Stündliche Wetter Donaueschingen

    Heute, 17 Oktober, Dienstag

    Zeit Temperatur Niederschläge Wind Luftdruck Luftfeuchtigkeit
    00:00 +12°C° 0 mm 1 m/S 708 mmHg 74%
    01:00 +12°C° 0 mm 1 m/S 708 mmHg 72%
    02:00 +11°C° 0 mm 1 m/S 708 mmHg 71%
    03:00 +11°C° 0 mm 1 m/S 708 mmHg 71%
    04:00 +11°C° 0 mm 1 m/S 707 mmHg 70%
    05:00 +10°C° 0 mm 1 m/S 707 mmHg 69%
    06:00 +10°C° 0 mm 1 m/S 707 mmHg 69%
    07:00 +10°C° 0 mm 1 m/S 707 mmHg 68%
    08:00 +12°C° 0 mm 1 m/S 707 mmHg 63%
    09:00 +15°C° 0 mm 1 m/S 708 mmHg 58%
    10:00 +18°C° 0 mm 1 m/S 708 mmHg 54%
    11:00 +20°C° 0 mm 1 m/S 708 mmHg 50%
    12:00 +19°C° 0 mm 0 m/S 707 mmHg 47%
    13:00 +20°C° 0 mm 0 m/S 707 mmHg 43%
    14:00 +20°C° 0 mm 0 m/S 707 mmHg 48%
    15:00 +19°C° 0 mm 0 m/S 706 mmHg 52%
    16:00 +19°C° 0 mm 0 m/S 706 mmHg 56%
    17:00 +17°C° 0 mm 0 m/S 705 mmHg 61%
    18:00 +14°C° 0 mm 0 m/S 705 mmHg 66%
    19:00 +12°C° 0 mm 0 m/S 705 mmHg 71%
    20:00 +11°C° 0 mm 0 m/S 704 mmHg 72%
    21:00 +11°C° 0 mm 0 m/S 704 mmHg 72%
    22:00 +12°C° 0 mm 1 m/S 704 mmHg 72%
    23:00 +11°C° 0 mm 1 m/S 704 mmHg 72%

    Morgen, 18 Oktober, Mittwoch

    Zeit Temperatur Niederschläge Wind Luftdruck Luftfeuchtigkeit
    00:00 +11°C° 0 mm 1 m/S 704 mmHg 71%
    01:00 +11°C° 0 mm 1 m/S 704 mmHg 71%
    02:00 +11°C° 0 mm 1 m/S 703 mmHg 70%
    03:00 +10°C° 0 mm 1 m/S 703 mmHg 70%
    04:00 +10°C° 0 mm 1 m/S 703 mmHg 70%
    05:00 +10°C° 0 mm 1 m/S 703 mmHg 70%
    06:00 +9°C° 0 mm 1 m/S 702 mmHg 70%
    07:00 +9°C° 0 mm 1 m/S 702 mmHg 69%
    08:00 +11°C° 0 mm 1 m/S 703 mmHg 64%
    09:00 +14°C° 0 mm 1 m/S 703 mmHg 59%
    10:00 +16°C° 0 mm 1 m/S 703 mmHg 54%
    11:00 +18°C° 0 mm 1 m/S 703 mmHg 51%
    12:00 +19°C° 0 mm 1 m/S 703 mmHg 48%
    13:00 +21°C° 0 mm 1 m/S 703 mmHg 45%
    14:00 +20°C° 0 mm 1 m/S 702 mmHg 49%
    15:00 +20°C° 0 mm 1 m/S 702 mmHg 53%
    16:00 +17°C° 0 mm 0 m/S 702 mmHg 58%
    17:00 +15°C° 0 mm 0 m/S 701 mmHg 63%
    18:00 +13°C° 0 mm 0 m/S 701 mmHg 68%
    19:00 +11°C° 0 mm 0 m/S 701 mmHg 74%
    20:00 +11°C° 0 mm 1 m/S 701 mmHg 76%
    21:00 +11°C° 0 mm 1 m/S 701 mmHg 77%
    22:00 +10°C° 0 mm 1 m/S 701 mmHg 79%
    23:00 +10°C° 0 mm 1 m/S 701 mmHg 79%

    übermorgen, 19 Oktober, Donnerstag

    Zeit Temperatur Niederschläge Wind Luftdruck Luftfeuchtigkeit
    00:00 +10°C° 0 mm 1 m/S 701 mmHg 80%
    01:00 +9°C° 0 mm 1 m/S 701 mmHg 81%
    02:00 +9°C° 0 mm 1 m/S 700 mmHg 80%
    03:00 +9°C° 0 mm 1 m/S 700 mmHg 80%
    04:00 +9°C° 0 mm 1 m/S 700 mmHg 80%
    05:00 +9°C° 0 mm 1 m/S 700 mmHg 80%
    06:00 +8°C° 0 mm 1 m/S 700 mmHg 79%
    07:00 +8°C° 0 mm 1 m/S 700 mmHg 79%
    08:00 +11°C° 0 mm 1 m/S 700 mmHg 72%
    09:00 +13°C° 0 mm 1 m/S 701 mmHg 66%
    10:00 +15°C° 0 mm 1 m/S 701 mmHg 60%
    11:00 +16°C° 0 mm 1 m/S 701 mmHg 57%
    12:00 +18°C° 0 mm 1 m/S 701 mmHg 54%
    13:00 +19°C° 0 mm 1 m/S 701 mmHg 51%
    14:00 +17°C° 0 mm 0 m/S 701 mmHg 54%
    15:00 +17°C° 0 mm 0 m/S 701 mmHg 58%
    16:00 +16°C° 0 mm 0 m/S 701 mmHg 62%
    17:00 +15°C° 0 mm 0 m/S 701 mmHg 66%
    18:00 +13°C° 0 mm 0 m/S 701 mmHg 70%
    19:00 +12°C° 0 mm 1 m/S 701 mmHg 74%
    20:00 +12°C° 0 mm 1 m/S 701 mmHg 73%
    21:00 +11°C° 0 mm 1 m/S 701 mmHg 72%
    22:00 +11°C° 0 mm 1 m/S 701 mmHg 72%
    23:00 +11°C° 0 mm 1 m/S 701 mmHg 72%

    20 Oktober, Freitag

    Zeit Temperatur Niederschläge Wind Luftdruck Luftfeuchtigkeit
    00:00 +11°C° 0 mm 1 m/S 701 mmHg 72%
    01:00 +11°C° 0 mm 1 m/S 701 mmHg 72%
    02:00 +10°C° 0 mm 1 m/S 701 mmHg 73%
    03:00 +10°C° 0 mm 1 m/S 701 mmHg 73%
    04:00 +10°C° 0 mm 1 m/S 701 mmHg 74%
    05:00 +10°C° 0,1 mm 1 m/S 701 mmHg 76%
    06:00 +10°C° 0,1 mm 1 m/S 701 mmHg 77%
    07:00 +10°C° 0,1 mm 1 m/S 701 mmHg 78%
    08:00 +12°C° 0,1 mm 2 m/S 702 mmHg 75%
    09:00 +13°C° 0,1 mm 2 m/S 702 mmHg 72%
    10:00 +14°C° 0,1 mm 2 m/S 703 mmHg 69%
    11:00 +16°C° 0 mm 3 m/S 703 mmHg 64%
    12:00 +17°C° 0 mm 3 m/S 703 mmHg 58%
    13:00 +19°C° 0 mm 4 m/S 703 mmHg 53%
    14:00 +18°C° 0 mm 3 m/S 703 mmHg 56%
    15:00 +18°C° 0 mm 2 m/S 702 mmHg 60%
    16:00 +18°C° 0 mm 2 m/S 702 mmHg 63%
    17:00 +16°C° 0 mm 1 m/S 702 mmHg 69%
    18:00 +14°C° 0 mm 1 m/S 702 mmHg 75%
    19:00 +12°C° 0 mm 1 m/S 703 mmHg 80%
    20:00 +12°C° 0 mm 1 m/S 703 mmHg 81%
    21:00 +12°C° 0 mm 1 m/S 703 mmHg 82%
    22:00 +10°C° 0 mm 2 m/S 703 mmHg 83%
    23:00 +10°C° 0 mm 2 m/S 703 mmHg 83%

    21 Oktober, Samstag

    Zeit Temperatur Niederschläge Wind Luftdruck Luftfeuchtigkeit
    00:00 +10°C° 0 mm 2 m/S 703 mmHg 82%
    01:00 +10°C° 0 mm 2 m/S 703 mmHg 81%
    02:00 +10°C° 0 mm 2 m/S 703 mmHg 80%
    03:00 +9°C° 0 mm 2 m/S 702 mmHg 80%
    04:00 +9°C° 0 mm 2 m/S 702 mmHg 79%
    05:00 +9°C° 0 mm 2 m/S 702 mmHg 79%
    06:00 +10°C° 0 mm 1 m/S 702 mmHg 80%
    07:00 +10°C° 0 mm 1 m/S 702 mmHg 80%
    08:00 +12°C° 0 mm 2 m/S 702 mmHg 74%
    09:00 +14°C° 0 mm 2 m/S 703 mmHg 68%
    10:00 +16°C° 0 mm 2 m/S 703 mmHg 62%
    11:00 +16°C° 0,4 mm 3 m/S 703 mmHg 67%
    12:00 +14°C° 0,4 mm 3 m/S 702 mmHg 72%
    13:00 +14°C° 0,4 mm 4 m/S 702 mmHg 77%
    14:00 +13°C° 0,8 mm 3 m/S 702 mmHg 81%
    15:00 +13°C° 0,8 mm 3 m/S 702 mmHg 85%
    16:00 +13°C° 0,8 mm 2 m/S 702 mmHg 90%
    17:00 +13°C° 0,9 mm 2 m/S 702 mmHg 91%
    18:00 +13°C° 0,9 mm 2 m/S 702 mmHg 92%
    19:00 +13°C° 0,9 mm 2 m/S 702 mmHg 94%
    20:00 +12°C° 2 mm 2 m/S 702 mmHg 94%
    21:00 +12°C° 2 mm 2 m/S 702 mmHg 94%
    22:00 +12°C° 2 mm 2 m/S 702 mmHg 95%
    23:00 +10°C° 1,3 mm 2 m/S 702 mmHg 95%

    22 Oktober, Sonntag

    Zeit Temperatur Niederschläge Wind Luftdruck Luftfeuchtigkeit
    00:00 +10°C° 1,3 mm 2 m/S 702 mmHg 95%
    01:00 +9°C° 1,3 mm 2 m/S 701 mmHg 95%
    02:00 +9°C° 2 mm 3 m/S 702 mmHg 94%
    03:00 +8°C° 2 mm 3 m/S 702 mmHg 94%
    04:00 +7°C° 2 mm 4 m/S 702 mmHg 93%
    05:00 +6°C° 0,3 mm 4 m/S 702 mmHg 93%
    06:00 +7°C° 0,3 mm 3 m/S 702 mmHg 93%
    07:00 +5°C° 0,3 mm 3 m/S 702 mmHg 92%
    08:00 +7°C° 0,1 mm 3 m/S 702 mmHg 89%
    09:00 +7°C° 0,1 mm 4 m/S 703 mmHg 86%
    10:00 +7°C° 0,1 mm 4 m/S 703 mmHg 83%
    11:00 +7°C° 0,2 mm 5 m/S 703 mmHg 80%
    12:00 +8°C° 0,2 mm 5 m/S 703 mmHg 77%
    13:00 +8°C° 0,2 mm 5 m/S 703 mmHg 73%
    14:00 +8°C° 0,3 mm 5 m/S 703 mmHg 74%
    15:00 +8°C° 0,3 mm 5 m/S 703 mmHg 75%
    16:00 +7°C° 0,3 mm 4 m/S 704 mmHg 76%
    17:00 +6°C° 0 mm 4 m/S 704 mmHg 79%
    18:00 +5°C° 0 mm 3 m/S 704 mmHg 83%
    19:00 +4°C° 0 mm 3 m/S 705 mmHg 86%
    20:00 +4°C° 0 mm 3 m/S 705 mmHg 86%
    21:00 +4°C° 0 mm 3 m/S 705 mmHg 86%
    22:00 +4°C° 0 mm 3 m/S 706 mmHg 86%
    23:00 +4°C° 0 mm 3 m/S 706 mmHg 86%
    Mehr zeigen